Weather History for Istanbul, Turkey

Change the Weather History Date:

Sunday, June 3, 2012

  Actual Average Record
Temperature  
Mean Temperature 76 °F -  
Max Temperature 87 °F 78 °F 87 °F (2001)
Min Temperature 64 °F 64 °F 55 °F (2003)
Cooling Degree Days 10    
Growing Degree Days 26 (Base 50)    
Moisture  
Dew Point 57 °F    
Average Humidity 54    
Maximum Humidity 88    
Minimum Humidity 25    
Precipitation  
Precipitation 0.00 in - - ()
Sea Level Pressure  
Sea Level Pressure 30.04 in    
Wind  
Wind Speed 4 mph ()    
Max Wind Speed 10 mph    
Max Gust Speed -    
Visibility 6.0 miles    
Events      
Averages and records for this station are not official NWS values.
T = Trace of Precipitation, MM = Missing Value Source: Averaged Metar Reports

Daily Weather History Graph

Daily Weather History Graph

Search for Another Location

Airport:

Trip Planner

Search our weather history database for the weather conditions in past years. The results will help you decide how hot, cold, wet, or windy it might be!

Date:

Astronomy

Jun. 03, 2012 Rise Set
Actual Time 5:34 AM EEST 8:32 PM EEST
Civil Twilight 5:01 AM EEST 9:05 PM EEST
Nautical Twilight 4:19 AM EEST 9:47 PM EEST
Astronomical Twilight 3:30 AM EEST 10:36 PM EEST
Moon 7:34 PM EEST (6/3) 4:25 AM EEST (6/3)
Length of Visible Light 16h 04m
Length of Day
14h 58m
Waxing Gibbous, 98% of the Moon is Illuminated
Jun 3
Waxing Gibbous
Jun 4
Full
Jun 11
Last Quarter
Jun 19
New
Jun 27
First Quarter

Hourly Weather History & Observations

Time (EEST) Temp. Heat Index Dew Point Humidity Pressure Visibility Wind Dir Wind Speed Gust Speed Precip Events Conditions
12:20 AM 73.4 °F - 53.6 °F 50% 30.06 in - ENE 4.6 mph - N/A   Clear
12:50 AM 71.6 °F - 53.6 °F 53% 30.06 in - East 4.6 mph - N/A   Clear
1:20 AM 71.6 °F - 55.4 °F 57% 30.06 in - East 4.6 mph - N/A   Clear
1:50 AM 71.6 °F - 55.4 °F 57% 30.06 in - Variable 2.3 mph - N/A   Clear
2:20 AM 69.8 °F - 55.4 °F 60% 30.06 in - Calm Calm - N/A   Clear
2:50 AM 68.0 °F - 57.2 °F 68% 30.06 in - Variable 1.2 mph - N/A   Clear
3:00 AM 67 °F - 57 °F 61% 30.07 in 6 mi SE 1.2 mph - -  
3:20 AM 68.0 °F - 59.0 °F 73% 30.06 in - Calm Calm - N/A   Clear
3:50 AM 66.2 °F - 59.0 °F 78% 30.06 in - West 3.5 mph - N/A   Clear
4:20 AM 64.4 °F - 60.8 °F 88% 30.06 in - NNW 4.6 mph - N/A   Clear
4:50 AM 66.2 °F - 59.0 °F 78% 30.06 in - NNW 3.5 mph - N/A   Clear
5:20 AM 64.4 °F - 59.0 °F 83% 30.06 in - NNW 3.5 mph - N/A   Clear
5:50 AM 64.4 °F - 59.0 °F 83% 30.06 in - NNW 4.6 mph - N/A   Clear
6:20 AM 66.2 °F - 59.0 °F 78% 30.06 in - North 6.9 mph - N/A   Clear
6:50 AM 68.0 °F - 59.0 °F 73% 30.06 in - Variable 1.2 mph - N/A   Clear
7:20 AM 71.6 °F - 59.0 °F 64% 30.06 in - East 3.5 mph - N/A   Clear
7:50 AM 71.6 °F - 60.8 °F 69% 30.06 in - ESE 4.6 mph - N/A   Clear
8:20 AM 75.2 °F - 60.8 °F 61% 30.09 in - SE 5.8 mph - N/A   Clear
8:50 AM 73.4 °F - 59.0 °F 61% 30.09 in - SE 8.1 mph - N/A   Clear
9:00 AM 74 °F - 58 °F 46% 30.09 in 6 mi SE 8.1 mph - -  
9:20 AM 73.4 °F - 60.8 °F 65% 30.06 in - SSE 6.9 mph - N/A   Clear
9:50 AM 73.4 °F - 59.0 °F 61% 30.06 in - ESE 4.6 mph - N/A   Clear
10:20 AM 75.2 °F - 59.0 °F 57% 30.06 in - East 5.8 mph - N/A   Clear
10:50 AM 77.0 °F - 59.0 °F 54% 30.06 in - ENE 4.6 mph - N/A   Clear
11:20 AM 77.0 °F - 59.0 °F 54% 30.06 in - SSE 5.8 mph - N/A   Clear
11:50 AM 77.0 °F - 60.8 °F 57% 30.06 in - South 5.8 mph - N/A   Clear
12:20 PM 75.2 °F - 60.8 °F 61% 30.06 in - SSW 4.6 mph - N/A   Clear
12:50 PM 77.0 °F - 60.8 °F 57% 30.06 in - SW 5.8 mph - N/A   Clear
1:20 PM 77.0 °F - 59.0 °F 54% 30.04 in - SW 5.8 mph - N/A   Clear
1:50 PM 78.8 °F - 60.8 °F 54% 30.04 in - WSW 5.8 mph - N/A   Clear
2:20 PM 80.6 °F 80.8 °F 57.2 °F 45% 30.04 in - WSW 4.6 mph - N/A   Clear
2:50 PM 82.4 °F 81.4 °F 53.6 °F 37% 30.04 in - WSW 4.6 mph - N/A   Clear
3:00 PM 83 °F - 54 °F 26% 30.03 in 6 mi WSW 4.6 mph - -   Partly Cloudy
3:20 PM 84.2 °F 83.5 °F 57.2 °F 40% 30.01 in - SW 6.9 mph - N/A   Clear
3:50 PM 84.2 °F 83.8 °F 59.0 °F 42% 30.01 in - Variable 5.8 mph - N/A   Clear
4:20 PM 86.0 °F 85.4 °F 59.0 °F 40% 30.01 in - Variable 8.1 mph - N/A   Clear
4:50 PM 84.2 °F 83.8 °F 59.0 °F 42% 30.01 in - North 10.4 mph - N/A   Clear
5:20 PM 86.0 °F 84.5 °F 55.4 °F 35% 30.01 in - Variable 5.8 mph - N/A   Clear
5:50 PM 86.0 °F 84.2 °F 53.6 °F 33% 30.01 in - Variable 5.8 mph - N/A   Clear
6:20 PM 82.4 °F 83.4 °F 62.6 °F 51% 30.01 in - Variable 3.5 mph - N/A   Clear
6:50 PM 84.2 °F 82.8 °F 53.6 °F 35% 30.01 in - ESE 6.9 mph - N/A   Clear
7:20 PM 80.6 °F 81.1 °F 59.0 °F 48% 30.01 in - SE 5.8 mph - N/A   Clear
7:50 PM 80.6 °F 80.5 °F 55.4 °F 42% 30.01 in - East 6.9 mph - N/A   Clear
8:20 PM 78.8 °F - 53.6 °F 42% 30.01 in - East 4.6 mph - N/A   Clear
8:50 PM 80.6 °F - 51.8 °F 37% 30.01 in - ENE 5.8 mph - N/A   Clear
9:00 PM 80 °F - 51 °F 25% 30.00 in 6 mi ENE 5.8 mph - -   Clear
9:20 PM 80.6 °F - 51.8 °F 37% 30.01 in - Variable 4.6 mph - N/A   Clear
9:50 PM 80.6 °F - 51.8 °F 37% 30.01 in - Variable 6.9 mph - N/A   Clear
10:20 PM 77.0 °F - 53.6 °F 44% 30.01 in - NE 6.9 mph - N/A   Clear
10:50 PM 77.0 °F - 55.4 °F 47% 30.01 in - NNE 6.9 mph - N/A   Clear
11:20 PM 75.2 °F - 53.6 °F 47% 30.01 in - NNE 5.8 mph - N/A   Clear
11:50 PM 75.2 °F - 53.6 °F 47% 30.01 in - NE 4.6 mph - N/A   Clear